| time (UTC) | temp F | wind direction | speed MPH | gust MPH | rain 1hr in | rain 24hr in | rain mn in | humidity % | barometer mb |
| 20260506185746 | 44 | 360 | 12.0 | 18.0 | 0.00 | 0.00 | 0.00 | 13 | 1025.0 |
| 20260506182741 | 45 | 360 | 11.0 | 19.0 | 0.00 | 0.00 | 0.00 | 13 | 1024.8 |
| 20260506175744 | 46 | 360 | 12.0 | 22.0 | 0.00 | 0.00 | 0.00 | 13 | 1024.6 |
| 20260506172745 | 46 | 292 | 15.0 | 20.0 | 0.00 | 0.00 | 0.00 | 13 | 1024.5 |
| 20260506165743 | 46 | 315 | 12.0 | 23.0 | 0.00 | 0.00 | 0.00 | 13 | 1024.5 |
| 20260506162748 | 47 | 360 | 15.0 | 19.0 | 0.00 | 0.00 | 0.00 | 13 | 1024.4 |
| 20260506155746 | 48 | 270 | 12.0 | 20.0 | 0.00 | 0.00 | 0.00 | 13 | 1024.5 |
| 20260506152744 | 49 | 360 | 10.0 | 22.0 | 0.00 | 0.00 | 0.00 | 13 | 1024.5 |
| 20260506145743 | 48 | 360 | 11.0 | 19.0 | 0.00 | 0.00 | 0.00 | 13 | 1024.8 |
| 20260506142743 | 48 | 360 | 10.0 | 15.0 | 0.00 | 0.00 | 0.00 | 13 | 1024.9 |
| 20260506135745 | 49 | 360 | 8.0 | 14.0 | 0.00 | 0.00 | 0.00 | 13 | 1024.8 |
| 20260506132746 | 50 | 270 | 6.0 | 12.0 | 0.00 | 0.00 | 0.00 | 13 | 1024.9 |
| 20260506125745 | 48 | 360 | 9.0 | 12.0 | 0.00 | 0.00 | 0.00 | 13 | 1025.0 |
| 20260506112746 | 48 | 360 | 6.0 | 10.0 | 0.00 | 0.00 | 0.00 | 13 | 1025.0 |
| 20260506105743 | 47 | 360 | 4.0 | 9.0 | 0.00 | 0.00 | 0.00 | 13 | 1025.0 |
| 20260506102744 | 44 | 270 | 9.0 | 17.0 | 0.00 | 0.00 | 0.00 | 13 | 1025.0 |
| 20260506095744 | 49 | 360 | 5.0 | 9.0 | 0.00 | 0.00 | 0.00 | 13 | 1025.0 |
| 20260506092744 | 49 | 360 | 3.0 | 6.0 | 0.00 | 0.00 | 0.00 | 13 | 1025.0 |
| 20260506085743 | 49 | 360 | 2.0 | 5.0 | 0.00 | 0.00 | 0.00 | 13 | 1025.0 |
| 20260506072743 | 52 | 90 | 1.0 | 4.0 | 0.00 | 0.00 | 0.00 | 13 | 1024.8 |
| 20260506042744 | 41 | 45 | 0.0 | 2.0 | 0.00 | 0.00 | 0.00 | 81 | 1024.5 |
| 20260506035745 | 39 | 45 | 0.0 | 4.0 | 0.00 | 0.00 | 0.00 | 69 | 1024.0 |
| 20260506032746 | 39 | 90 | 3.0 | 6.0 | 0.00 | 0.00 | 0.00 | 53 | 1024.4 |
| 20260506025746 | 39 | 90 | 2.0 | 6.0 | 0.00 | 0.00 | 0.00 | 45 | 1024.3 |
| 20260506022745 | 39 | 45 | 1.0 | 6.0 | 0.00 | 0.00 | 0.00 | 49 | 1024.3 |
| 20260506012749 | 40 | 360 | 4.0 | 7.0 | 0.00 | 0.00 | 0.00 | 51 | 1024.5 |
| 20260506005747 | 40 | 360 | 4.0 | 7.0 | 0.00 | 0.00 | 0.00 | 52 | 1024.5 |
| 20260506002744 | 40 | 45 | 5.0 | 9.0 | 0.00 | 0.00 | 0.00 | 53 | 1024.5 |
| 20260505235743 | 41 | 360 | 4.0 | 8.0 | 0.00 | 0.00 | 0.00 | 51 | 1024.6 |
| 20260505232742 | 41 | 360 | 5.0 | 10.0 | 0.00 | 0.00 | 0.00 | 42 | 1024.4 |
| 20260505222743 | 41 | 360 | 6.0 | 9.0 | 0.00 | 0.00 | 0.00 | 35 | 1024.4 |
| 20260505215743 | 41 | 45 | 6.0 | 11.0 | 0.00 | 0.00 | 0.00 | 31 | 1024.5 |
| 20260505212742 | 42 | 360 | 7.0 | 12.0 | 0.00 | 0.00 | 0.00 | 26 | 1024.4 |
| 20260505205746 | 42 | 360 | 6.0 | 12.0 | 0.00 | 0.00 | 0.00 | 18 | 1024.4 |
| 20260505202750 | 42 | 360 | 8.0 | 14.0 | 0.00 | 0.00 | 0.00 | 21 | 1024.5 |
| 20260505195744 | 42 | 292 | 8.0 | 14.0 | 0.00 | 0.00 | 0.00 | 10 | 1024.5 |
| 20260505192746 | 43 | 360 | 9.0 | 13.0 | 0.00 | 0.00 | 0.00 | 10 | 1024.4 |